Regional Weather Roundup
Issued by NWS Sterling, VA

Home | Current Version | Previous Version | Text Only | Print | Product List | Glossary Off
Versions: 1 2 3 4 5 6 7 8 9 10 11 12 13 14 15 16 17 18 19 20 21 22 23 24 25 26

000
ASUS41 KLWX 261110
RWRLWX

REGIONAL WEATHER ROUNDUP
NATIONAL WEATHER SERVICE BALTIMORE MD/WASHINGTON DC
700 AM EDT THU MAY 26 2016

Note: "FAIR" indicates few or no clouds below 12,000 feet
with no significant weather and/or obstructions to visibility.
 TC=TEMPERATURE CELSIUS

 * =Non NWS site. Station does not report precipitation (e.g. rain,
    snow, etc.), thunder, or fog.

DCZ001-MDZ009-015-VAZ040>042-051-053>054-261200-
WASHINGTON METRO

CITY           SKY/WX    TMP DP  RH WIND       PRES   REMARKS
WASHINGTON NAT CLOUDY    64  62  93 CALM      30.13R
DULLES         PTSUNNY   61  57  87 CALM      30.13R
ANDREWS AFB    MOSUNNY   63  58  84 S3        30.12R
FT BELVOIR     FAIR      57  56  96 CALM      30.14R FOG
QUANTICO       PTSUNNY   62  59  90 NW5       30.14R
COLLEGE PARK*  FAIR      57  55  94 CALM      30.12S
LEESBURG*      FAIR      61  61 100 CALM      30.14R
MANASSAS*      SUNNY     57  57 100 CALM      30.13R

$$

MDZ006>007-011-014-261200-
BALTIMORE METRO

CITY           SKY/WX    TMP DP  RH WIND       PRES   REMARKS
BWI AIRPORT    PTSUNNY   62  58  86 CALM      30.12S
MD SCIENCE CTR   N/A     67  58  72 MISG      30.13R
MARTIN STATE   MOSUNNY   61  61 100 CALM      30.14R
ANNAPOLIS      SUNNY     64  61  90 CALM      30.13R
FORT MEADE*    SUNNY     54  54 100 CALM      30.15S

$$

MDZ012-015-019>023-261200-
MARYLAND EASTERN SHORE

CITY           SKY/WX    TMP DP  RH WIND       PRES   REMARKS
OCEAN CITY     MOSUNNY   66  61  84 W3        30.15R
SALISBURY      MOSUNNY   65  61  87 S5        30.14S
CAMBRIDGE*       N/A    N/A N/A N/A SE3       30.13S
EASTON*        MOSUNNY   64  64 100 CALM      30.17R

$$

MDZ017>025-261200-
SOUTHERN MARYLAND

CITY           SKY/WX    TMP DP  RH WIND       PRES   REMARKS
PATUXENT RIVER CLOUDY    68  58  70 SW8       30.13S
ST INIGOES     SUNNY     62  60  93 CALM      30.14R
LEONARDTOWN*   SUNNY     64  57  77 S3        30.15S

$$

MDZ003>005-261200-
NORTH CENTRAL MARYLAND

CITY           SKY/WX    TMP DP  RH WIND       PRES   REMARKS
FREDERICK*     SUNNY     57  57 100 CALM      30.15S
HAGERSTOWN APT CLOUDY    63  55  75 E3        30.13R
WESTMINSTER*   CLOUDY    66  63  88 CALM      30.13S

$$

MDZ501>502-261200-
WESTERN MARYLAND

CITY           SKY/WX    TMP DP  RH WIND       PRES   REMARKS
OAKLAND*       CLOUDY    61  52  72 S8        30.21R
CUMBERLAND*    CLOUDY    59  57  94 CALM      30.19R

$$

VAZ025>031-261200-
SHENANDOAH VALLEY

CITY           SKY/WX    TMP DP  RH WIND       PRES   REMARKS
WINCHESTER*    CLOUDY    64  57  77 CALM      30.13S
FRONT ROYAL*   CLOUDY    63  57  82 S3        30.13R
LURAY*         PTSUNNY   61  61 100 CALM      30.16R
NEW MARKET*    CLOUDY    60  58  96 CALM      30.15S
STAUNTON*      FAIR      60  57  92 CALM      30.19R
WAYNESBORO*    FAIR      61  56  85 CALM      30.18R

$$

WVZ021-048>050-054>055-261200-
EASTERN WEST VIRGINIA PANHANDLE

CITY           SKY/WX    TMP DP  RH WIND       PRES   REMARKS
MARTINSBURG    CLOUDY    61  58  90 CALM      30.13R
PETERSBURG*    PTSUNNY   59  58  96 CALM      30.17S

$$

VAZ036>039-050-261200-
CENTRAL FOOTHILLS

CITY           SKY/WX    TMP DP  RH WIND       PRES   REMARKS
CHARLOTTESVILL PTSUNNY   63  57  81 VRB3      30.14R
CULPEPER*      CLOUDY    60  60  99 CALM      30.14R
ORANGE*        CLOUDY    63  63 100 CALM      30.15R
GORDONSVILLE*  CLOUDY    62  60  95 SW3       30.13S
WARRENTON*     PTSUNNY   61  56  85 CALM      30.12S

$$

VAZ055>057-261200-
NORTH AND CENTRAL PIEDMONT

CITY           SKY/WX    TMP DP  RH WIND       PRES   REMARKS
FREDERICKSBRG* NOT AVBL
STAFFORD*      FAIR      58  56  96 CALM      30.17S

$$

NCZ024-NYZ072-PAZ021-071-VAZ022-071-261200-
OTHER REGIONAL OBSERVATIONS

CITY           SKY/WX    TMP DP  RH WIND       PRES   REMARKS
NEW YORK CITY  SUNNY     71  51  49 W3        30.13R
PHILADELPHIA   MOSUNNY   65  56  72 W3        30.13R
PITTSBURGH     CLOUDY    68  55  63 CALM      30.10S
ROANOKE        CLOUDY    67  59  75 CALM      30.20R
RICHMOND       PTSUNNY   63  60  90 CALM      30.15R
RALEIGH        PTCLDY    66  61  84 S3        30.19R

$$

ANZ530>537-261200-
MARINE OBSERVATIONS

STATION/POSITION TIME  TEMP    WIND        PRES
                       AIR SEA DIR/SP/G
                 (UTC) (F)     (DEG/KT/KT) (MB)
THOMAS PT LIGHT  1100   66 63  190/  6/  6 1021.5R
BALT KEY BRIDGE  1000   65        CALM     1019.8R
COVE POINT       1000   68     200/  4/  7 1020.7R
LEWISETTA        1000   67 69  240/  4/  6 1020.0R
SOLOMONS ISLAND  1000   65 65     CALM       N/A
PINEY POINT      1000          210/  5/  5   N/A

$$





USA.gov is the U.S. government's official web portal to all federal, state and local government web resources and services.